| time (UTC) | temp F | wind direction | speed knots | gust knots | rain 1hr in | rain 24hr in | rain mn in | humidity % | barometer mb |
| 20260506131605 | 78 | 122 | 8.7 | 13.9 | 0.00 | 0.00 | 0.00 | 34 | 1017.5 |
| 20260506130050 | 77 | 104 | 7.0 | 13.0 | 0.00 | 0.00 | 0.00 | 35 | 1017.3 |
| 20260506124551 | 78 | 98 | 7.8 | 12.2 | 0.00 | 0.00 | 0.00 | 35 | 1017.3 |
| 20260506123142 | 77 | 89 | 5.2 | 11.3 | 0.00 | 0.00 | 0.00 | 36 | 1017.2 |
| 20260506121601 | 78 | 127 | 4.3 | 9.6 | 0.00 | 0.00 | 0.00 | 37 | 1017.0 |
| 20260506120053 | 78 | 108 | 4.3 | 7.8 | 0.00 | 0.00 | 0.00 | 37 | 1016.9 |
| 20260506114552 | 78 | 93 | 4.3 | 8.7 | 0.00 | 0.00 | 0.00 | 37 | 1016.8 |
| 20260506113047 | 79 | 111 | 6.1 | 9.6 | 0.00 | 0.00 | 0.00 | 38 | 1016.7 |
| 20260506111604 | 79 | 169 | 3.5 | 10.4 | 0.00 | 0.00 | 0.00 | 38 | 1016.7 |
| 20260506110051 | 79 | 112 | 5.2 | 10.4 | 0.00 | 0.00 | 0.00 | 38 | 1016.4 |
| 20260506104551 | 79 | 96 | 3.5 | 8.7 | 0.00 | 0.00 | 0.00 | 38 | 1016.1 |
| 20260506103045 | 80 | 111 | 4.3 | 8.7 | 0.00 | 0.00 | 0.00 | 37 | 1016.0 |
| 20260506101546 | 80 | 147 | 4.3 | 8.7 | 0.00 | 0.00 | 0.00 | 37 | 1015.7 |
| 20260506100049 | 81 | 92 | 4.3 | 8.7 | 0.00 | 0.00 | 0.00 | 36 | 1015.5 |
| 20260506094550 | 82 | 129 | 4.3 | 11.3 | 0.00 | 0.00 | 0.00 | 36 | 1015.5 |
| 20260506093052 | 82 | 112 | 7.8 | 13.9 | 0.00 | 0.00 | 0.00 | 35 | 1015.3 |
| 20260506091549 | 83 | 101 | 7.0 | 13.0 | 0.00 | 0.00 | 0.00 | 34 | 1015.2 |
| 20260506090053 | 84 | 94 | 9.6 | 14.8 | 0.00 | 0.00 | 0.00 | 33 | 1015.2 |
| 20260506084550 | 84 | 97 | 10.4 | 16.5 | 0.00 | 0.00 | 0.00 | 33 | 1015.0 |
| 20260506083109 | 85 | 58 | 7.8 | 14.8 | 0.00 | 0.00 | 0.00 | 32 | 1014.9 |
| 20260506081550 | 85 | 70 | 8.7 | 13.9 | 0.00 | 0.00 | 0.00 | 33 | 1014.7 |
| 20260506073053 | 87 | 106 | 9.6 | 16.5 | 0.00 | 0.00 | 0.00 | 31 | 1014.6 |
| 20260506071553 | 87 | 66 | 10.4 | 16.5 | 0.00 | 0.00 | 0.00 | 31 | 1014.5 |
| 20260506061549 | 87 | 143 | 8.7 | 16.5 | 0.00 | 0.00 | 0.00 | 31 | 1014.8 |
| 20260506044648 | 86 | 63 | 7.0 | 16.5 | 0.00 | 0.00 | 0.00 | 31 | 1015.7 |
| 20260506043045 | 84 | 117 | 7.0 | 20.0 | 0.00 | 0.00 | 0.00 | 30 | 1015.8 |
| 20260506041552 | 85 | 86 | 8.7 | 15.6 | 0.00 | 0.00 | 0.00 | 31 | 1016.0 |
| 20260506040047 | 84 | 110 | 7.0 | 16.5 | 0.00 | 0.00 | 0.00 | 30 | 1016.4 |
| 20260506034551 | 83 | 100 | 9.6 | 15.6 | 0.00 | 0.00 | 0.00 | 31 | 1016.6 |
| 20260506033047 | 82 | 87 | 13.0 | 18.2 | 0.00 | 0.00 | 0.00 | 30 | 1016.7 |
| 20260506031544 | 82 | 81 | 7.8 | 19.1 | 0.00 | 0.00 | 0.00 | 29 | 1016.9 |
| 20260506030047 | 81 | 79 | 11.3 | 17.4 | 0.00 | 0.00 | 0.00 | 29 | 1017.4 |
| 20260506024550 | 80 | 94 | 10.4 | 16.5 | 0.00 | 0.00 | 0.00 | 30 | 1017.7 |
| 20260506023047 | 80 | 139 | 11.3 | 17.4 | 0.00 | 0.00 | 0.00 | 29 | 1017.7 |
| 20260506021544 | 79 | 82 | 13.0 | 20.0 | 0.00 | 0.00 | 0.00 | 30 | 1017.9 |
| 20260506020048 | 79 | 118 | 11.3 | 19.1 | 0.00 | 0.00 | 0.00 | 29 | 1018.0 |
| 20260506014557 | 78 | 93 | 11.3 | 20.9 | 0.00 | 0.00 | 0.00 | 29 | 1018.1 |
| 20260506013049 | 77 | 102 | 11.3 | 23.5 | 0.00 | 0.00 | 0.00 | 30 | 1018.0 |
| 20260506011617 | 76 | 94 | 12.2 | 20.9 | 0.00 | 0.00 | 0.00 | 30 | 1018.1 |
| 20260506010048 | 74 | 82 | 11.3 | 21.7 | 0.00 | 0.00 | 0.00 | 31 | 1018.0 |
| 20260506004602 | 72 | 99 | 9.6 | 17.4 | 0.00 | 0.00 | 0.00 | 32 | 1017.8 |
| 20260506003049 | 71 | 100 | 9.6 | 19.1 | 0.00 | 0.00 | 0.00 | 32 | 1017.9 |
| 20260506001546 | 70 | 151 | 8.7 | 17.4 | 0.00 | 0.00 | 0.00 | 33 | 1017.7 |
| 20260506000154 | 69 | 125 | 8.7 | 19.1 | 0.00 | 0.00 | 0.00 | 34 | 1017.6 |
| 20260505234559 | 67 | 120 | 10.4 | 16.5 | 0.00 | 0.00 | 0.00 | 35 | 1017.4 |
| 20260505233059 | 66 | 128 | 8.7 | 15.6 | 0.00 | 0.00 | 0.00 | 37 | 1017.4 |
| 20260505231559 | 65 | 164 | 7.8 | 14.8 | 0.00 | 0.00 | 0.00 | 38 | 1017.5 |
| 20260505230117 | 64 | 134 | 10.4 | 14.8 | 0.00 | 0.00 | 0.00 | 38 | 1017.3 |
| 20260505224611 | 63 | 141 | 7.8 | 13.9 | 0.00 | 0.00 | 0.00 | 38 | 1017.1 |
| 20260505223222 | 63 | 136 | 7.0 | 13.9 | 0.00 | 0.00 | 0.00 | 39 | 1017.0 |
| 20260505221601 | 63 | 135 | 6.1 | 13.9 | 0.00 | 0.00 | 0.00 | 38 | 1016.9 |
| 20260505220050 | 63 | 101 | 7.8 | 13.0 | 0.00 | 0.00 | 0.00 | 38 | 1016.7 |
| 20260505214657 | 63 | 138 | 6.1 | 14.8 | 0.00 | 0.00 | 0.00 | 38 | 1016.5 |
| 20260505213100 | 63 | 131 | 8.7 | 14.8 | 0.00 | 0.00 | 0.00 | 38 | 1016.6 |
| 20260505210248 | 64 | 138 | 9.6 | 18.2 | 0.00 | 0.00 | 0.00 | 37 | 1016.4 |
| 20260505204613 | 64 | 147 | 11.3 | 17.4 | 0.00 | 0.00 | 0.00 | 36 | 1016.4 |
| 20260505203102 | 64 | 121 | 10.4 | 15.6 | 0.00 | 0.00 | 0.00 | 36 | 1016.4 |
| 20260505201620 | 64 | 172 | 8.7 | 12.2 | 0.00 | 0.00 | 0.00 | 36 | 1016.4 |
| 20260505200050 | 64 | 114 | 8.7 | 13.0 | 0.00 | 0.00 | 0.00 | 36 | 1016.4 |
| 20260505194620 | 65 | 126 | 7.8 | 13.9 | 0.00 | 0.00 | 0.00 | 36 | 1016.4 |
| 20260505193106 | 65 | 141 | 8.7 | 15.6 | 0.00 | 0.00 | 0.00 | 35 | 1016.3 |
| 20260505191612 | 65 | 170 | 8.7 | 13.9 | 0.00 | 0.00 | 0.00 | 35 | 1016.3 |
| 20260505190054 | 65 | 131 | 9.6 | 17.4 | 0.00 | 0.00 | 0.00 | 35 | 1016.3 |
| 20260505184610 | 65 | 172 | 7.8 | 13.9 | 0.00 | 0.00 | 0.00 | 34 | 1016.3 |
| 20260505183055 | 65 | 159 | 7.0 | 13.9 | 0.00 | 0.00 | 0.00 | 34 | 1016.5 |
| 20260505181624 | 66 | 139 | 7.8 | 13.9 | 0.00 | 0.00 | 0.00 | 34 | 1016.6 |
| 20260505180109 | 66 | 128 | 9.6 | 16.5 | 0.00 | 0.00 | 0.00 | 33 | 1016.6 |
| 20260505174546 | 66 | 123 | 10.4 | 15.6 | 0.00 | 0.00 | 0.00 | 33 | 1016.7 |
| 20260505173142 | 67 | 139 | 9.6 | 14.8 | 0.00 | 0.00 | 0.00 | 32 | 1016.7 |
| 20260505171704 | 67 | 117 | 10.4 | 15.6 | 0.00 | 0.00 | 0.00 | 32 | 1016.8 |
| 20260505170103 | 67 | 116 | 7.8 | 14.8 | 0.00 | 0.00 | 0.00 | 32 | 1017.0 |
| 20260505164626 | 68 | 116 | 8.7 | 15.6 | 0.00 | 0.00 | 0.00 | 31 | 1016.9 |
| 20260505163051 | 68 | 150 | 10.4 | 15.6 | 0.00 | 0.00 | 0.00 | 31 | 1017.0 |
| 20260505161554 | 68 | 131 | 8.7 | 14.8 | 0.00 | 0.00 | 0.00 | 30 | 1017.1 |
| 20260505160116 | 68 | 135 | 10.4 | 14.8 | 0.00 | 0.00 | 0.00 | 30 | 1017.1 |
| 20260505153132 | 69 | 153 | 7.8 | 13.0 | 0.00 | 0.00 | 0.00 | 29 | 1017.2 |
| 20260505151551 | 69 | 155 | 6.1 | 13.0 | 0.00 | 0.00 | 0.00 | 29 | 1017.4 |
| 20260505150108 | 69 | 151 | 7.0 | 13.0 | 0.00 | 0.00 | 0.00 | 28 | 1017.6 |